This demonstration page uses our WeatherBlox Daily Observations layout. Learn more.

Left ArrowRight Arrow

34.74481, -87.66753

Hourly Observations for July 19, 2019

Temp ( °F °C ) Dew Point ( °F °C ) Humidity (%) Winds ( mph kmh ) Pressure ( in mb ) Visibility ( mi km ) Precip ( " mm )
12:53 am 00:53 Mostly Clear 77 25 74 23.3 90 90 undefined N/A 29.99 1016 10 16 0.00 0.00
1:53 am 01:53 Partly Cloudy 76 24.4 74 23.3 94 94 undefined N/A 30.00 1016 10 16 0.00 0.00
2:53 am 02:53 Cloudy 76 24.4 74 23.3 94 94 Calm 29.99 1016 10 16 0.00 0.00
3:53 am 03:53 Mostly Cloudy 76 24.4 74 23.3 94 94 Calm 30.00 1016 10 16 0.00 0.00
4:53 am 04:53 Mostly Cloudy 75 23.9 73 22.8 94 94 Calm 30.00 1016 10 16 0.00 0.00
5:53 am 05:53 Cloudy 76 24.4 74 23.3 94 94 Calm 30.02 1017 10 16 0.00 0.00
6:53 am 06:53 Sunny 76 24.4 74 23.3 94 94 ESE 3 6 30.04 1017 10 16 0.00 0.00
7:53 am 07:53 Sunny 78 25.6 75 23.9 90 90 Calm 30.06 1018 10 16 0.00 0.00
8:53 am 08:53 Sunny 80 26.7 76 24.4 87 87 Calm 30.08 1019 10 16 0.00 0.00
9:53 am 09:53 Sunny 81 27.2 76 24.4 85 85 SSW 3 6 30.09 1019 10 16 0.00 0.00
10:53 am 10:53 Sunny 84 28.9 76 24.4 77 77 WNW 5 7 30.08 1019 10 16 0.00 0.00
11:53 am 11:53 Sunny 89 31.7 76 24.4 65 65 WNW 8 13 30.07 1018 10 16 0.00 0.00
12:45 pm 12:45 Mostly Cloudy 90 32.2 76 24.4 63 63 WNW 7 11 30.03 1017 10 16 0.00 0.00
12:53 pm 12:53 Mostly Cloudy 89 31.7 75 23.9 63 63 NNW 6 9 30.05 1018 10 16 0.00 0.00
1:27 pm 13:27 Mostly Cloudy 90 32.2 75 23.9 62 62 NW 7 11 30.02 1017 10 16 0.00 0.00
1:53 pm 13:53 Partly Cloudy 92 33.3 74 23.3 56 56 NW 5 7 30.03 1017 10 16 0.00 0.00
2:53 pm 14:53 Mostly Sunny 93 33.9 74 23.3 54 54 VRB 3 6 30.02 1017 10 16 0.00 0.00
3:53 pm 15:53 Partly Cloudy 92 33.3 73 22.8 54 54 WSW 5 7 30.01 1016 10 16 0.00 0.00
4:53 pm 16:53 Mostly Sunny 92 33.3 74 23.3 56 56 VRB 3 6 30.00 1016 10 16 0.00 0.00
5:53 pm 17:53 Mostly Cloudy 90 32.2 73 22.8 58 58 W 5 7 29.98 1015 10 16 0.00 0.00
6:53 pm 18:53 Sunny 89 31.7 73 22.8 59 59 SW 5 7 29.98 1015 10 16 0.00 0.00
7:53 pm 19:53 Sunny 85 29.4 75 23.9 72 72 SSW 3 6 29.99 1016 10 16 0.00 0.00
8:53 pm 20:53 Clear 81 27.2 76 24.4 85 85 undefined N/A 30.02 1017 10 16 0.00 0.00
9:53 pm 21:53 Clear 80 26.7 74 23.3 82 82 SSW 8 13 30.03 1017 10 16 0.00 0.00
10:53 pm 22:53 Clear 79 26.1 73 22.8 82 82 SSW 6 9 30.02 1017 10 16 0.00 0.00
11:53 pm 23:53 Clear 78 25.6 73 22.8 85 85 SW 5 7 30.00 1016 10 16 0.00 0.00

Powered by AerisWeather